Regional Weather Roundup
Issued by NWS Nashville, TN

Home | Current Version | Previous Version | Text Only | Print | Product List | Glossary On
Versions: 1 2 3 4 5 6 7 8 9 10 11 12 13 14 15 16 17 18 19 20 21 22 23 24 25 26 27 28 29 30 31 32 33 34 35 36 37 38 39 40 41 42 43 44 45 46 47 48 49 50
000
ASUS44 KOHX 272315
RWROHX
MIDDLE TENNESSEE HOURLY WEATHER ROUNDUP
NATIONAL WEATHER SERVICE NASHVILLE TN
600 PM CDT WED AUG 27 2014

NOTE: "FAIR" INDICATES FEW OR NO CLOUDS BELOW 12,000 FEET WITH
NO SIGNIFICANT WEATHER AND/OR OBSTRUCTIONS TO VISIBILITY.

* THESE REPORTS ARE NOT UNDER NWS QUALITY CONTROL AND MAY NOT
  REPORT WEATHER SUCH AS PRECIPITATION AND FOG.


TNZ005>011-023>034-057-059-062>066-078-080-280000
...NORTHERN MIDDLE TENNESSEE...

CITY           SKY/WX    TMP DP  RH WIND       PRES   REMARKS
CLARKSVILLE    MOSUNNY   88  72  58 S3        30.01F HX  94
CROSSVILLE     SUNNY     83  61  47 N7        30.10F
GALLATIN         N/A     89  72  57 E5        30.04F HX  96
DICKSON        MOSUNNY   84  73  70 CALM      30.04F HX  91
LEBANON        SUNNY     88  68  51 NE7       30.02F HX  91
LIVINGSTON     SUNNY     82  68  62 NE7       30.07F
NASHVILLE      MOSUNNY   89  68  49 SE9       30.03F HX  93
WEST NASHVILLE   N/A     90  68  48 E6        30.01F HX  93
PORTLAND       SUNNY     86  72  62 E3        30.03F HX  92
SMYRNA         SUNNY     90  70  51 E8        30.03F HX  95
SPARTA         MOSUNNY   86  70  58 E3        30.05F HX  90
$$
TNZ056-058-060-061-075>077-079-093>097-280000
...SOUTHERN MIDDLE TENNESSEE...

CITY           SKY/WX    TMP DP  RH WIND       PRES   REMARKS
COLUMBIA         N/A     90  73  58 W5        30.02S HX  98
FAYETTEVILLE   SUNNY     84  66  54 CALM      30.04F
LEWISBURG      SUNNY     89  65  44 NE5       30.02F HX  90
MCMINNVILLE    SUNNY     86  70  58 NE6       30.06S HX  90
MURFREESBORO   SUNNY     87  66  49 NE6       30.03F
SHELBYVILLE    SUNNY     88  68  51 NE7       30.04F HX  91
TULLAHOMA      MOSUNNY   86  64  48 NE6       30.06S
WINCHESTER     SUNNY     86  66  51 N3        30.04F
$$


...KEY TO REMARKS...
VSB - VISIBILITY IN MILES
WCI - WIND CHILL INDEX
HX  - HEAT INDEX




USA.gov is the U.S. government's official web portal to all federal, state and local government web resources and services.